[[{"header":{"parameterUnit":"m.s-1","parameterCategory":1,"la1":30.2992,"la2":30.254,"lo1":-89.0895,"lo2":-89.0443,"dy":0.0025,"dx":0.0025,"nx":19,"ny":19,"refTime":"2026-05-15T03:00:00:Z","depth":0,"parameterNumber":2,"parameterNumberName":"U-component_of_WINDS"},"data":[0,0,0,-2.0596,-2.0597,-2.0652,-2.0652,-2.072,-2.072,0,0,0,0,0,0,0,0,0,0,0,-2.0575,-2.0575,-2.0596,-2.0597,-2.0652,-2.0652,-2.072,-2.072,0,0,0,0,0,0,0,0,0,0,0,-2.0575,-2.0575,-2.0575,-2.0597,-2.0652,-2.0652,-2.072,-2.068,0,0,0,0,0,0,0,0,0,0,-2.0627,-2.0602,-2.0575,-2.0575,-2.0597,-2.0652,-2.0652,-2.0678,-2.0682,-2.0692,0,-2.0699,0,-2.071,-2.0724,-2.0725,0,0,0,-2.0601,-2.0599,-2.0618,-2.0575,-2.0598,-2.0652,-2.0628,-2.068,-2.0685,-2.0698,-2.07,-2.0702,-2.0712,-2.0725,-2.0725,-2.0769,-2.0769,0,0,-2.0598,-2.0583,-2.0614,-2.062,-2.0609,-2.0626,-2.063,-2.0683,-2.0685,-2.07,-2.0704,-2.0713,-2.0725,-2.0726,-2.0769,-2.0769,0,0,0,-2.0586,-2.0581,-2.0598,-2.0617,-2.0628,-2.0628,-2.0632,-2.0682,-2.0689,-2.0705,-2.0713,-2.0726,-2.0726,-2.0769,-2.0769,-2.0756,0,0,0,-2.0585,-2.0574,-2.0597,-2.0588,-2.0626,-2.0655,-2.063,-2.0685,-2.0692,-2.0713,-2.0726,-2.0727,-2.0769,-2.0769,-2.0756,-2.0752,0,0,0,-2.0573,-2.0573,-2.0579,-2.0587,-2.061,-2.0655,-2.0665,-2.0687,-2.0697,-2.0725,-2.0727,-2.0769,-2.0769,-2.0756,-2.0752,-2.0759,0,0,0,-2.0556,-2.0566,-2.0578,-2.0593,-2.061,-2.0645,-2.0664,-2.0692,-2.0714,-2.0726,-2.0769,-2.0769,-2.0756,-2.0752,-2.0759,-2.0762,-2.0761,0,0,-2.0561,-2.0566,-2.0577,-2.0589,-2.0618,-2.0638,-2.0667,-2.0702,-2.0719,-2.0752,-2.0753,-2.0756,-2.0752,-2.0759,-2.0765,-2.0765,0,0,0,-2.0573,-2.058,-2.0591,-2.0611,-2.0637,-2.066,-2.0692,-2.0705,-2.0734,-2.0732,-2.0761,-2.0759,-2.0764,-2.0766,-2.0766,-2.0771,-2.0769,-2.0769,-2.0769,-2.0558,-2.0578,-2.0597,-2.0624,-2.0644,-2.0677,-2.0696,-2.072,-2.0735,-2.0742,-2.0752,-2.0753,-2.0755,-2.0754,-2.076,-2.0755,-2.0755,-2.0755,-2.0755,-2.0566,-2.0579,-2.0601,-2.0626,-2.0649,-2.0671,-2.0705,-2.0716,-2.0741,-2.0747,-2.0752,-2.0756,-2.0753,-2.0759,-2.0754,-2.0755,-2.0755,-2.0755,-2.0755,-2.0558,-2.0568,-2.0584,-2.0615,-2.0638,-2.0667,-2.0691,-2.0711,-2.0731,-2.0736,-2.0749,-2.075,-2.0753,-2.0741,-2.0741,-2.0741,-2.0741,-2.0741,-2.0741,-2.0543,-2.0561,-2.0577,-2.0607,-2.0623,-2.0648,-2.0683,-2.0701,-2.0725,-2.0739,-2.0739,-2.0755,-2.0749,-2.0747,-2.0741,-2.0741,-2.0741,-2.0741,-2.0741,-2.0543,-2.0547,-2.0571,-2.0587,-2.0625,-2.0648,-2.0674,-2.0708,-2.0726,-2.0737,-2.0753,-2.0745,-2.0752,-2.0753,-2.0751,-2.0747,-2.0747,-2.0747,-2.0747,-2.0536,-2.0542,-2.0572,-2.0597,-2.0624,-2.0651,-2.0681,-2.071,-2.0741,-2.0754,-2.0758,-2.0758,-2.0758,-2.0766,-2.0766,-2.0765,-2.0764,-2.0764,-2.0764,-2.0538,-2.0547,-2.0567,-2.0596,-2.0627,-2.0655,-2.0685,-2.0715,-2.0751,-2.0765,-2.0765,-2.0764,-2.0765,-2.0763,-2.0776,-2.0776,-2.0775,0,0]},{"header":{"parameterUnit":"m.s-1","parameterCategory":1,"la1":30.2992,"la2":30.254,"lo1":-89.0895,"lo2":-89.0443,"dy":0.0025,"dx":0.0025,"nx":19,"ny":19,"refTime":"2026-05-15T03:00:00:Z","depth":0,"parameterNumber":3,"parameterNumberName":"V-component_of_WINDS"},"data":[0,0,0,4.4637,4.4639,4.4726,4.4726,4.4827,4.4827,0,0,0,0,0,0,0,0,0,0,0,4.4604,4.4604,4.4637,4.4639,4.4726,4.4726,4.4826,4.4827,0,0,0,0,0,0,0,0,0,0,0,4.4603,4.4604,4.4604,4.4639,4.4725,4.4726,4.4826,4.4765,0,0,0,0,0,0,0,0,0,0,4.4682,4.4644,4.4604,4.4605,4.4639,4.4725,4.4726,4.4762,4.4768,4.4782,0,4.4792,0,4.4811,4.4833,4.4834,0,0,0,4.4644,4.4638,4.4668,4.4605,4.464,4.4725,4.4688,4.4766,4.4773,4.4791,4.4794,4.4798,4.4813,4.4834,4.4834,4.4896,4.4896,0,0,4.4639,4.4615,4.4663,4.4673,4.4658,4.4685,4.4691,4.477,4.4772,4.4794,4.48,4.4815,4.4835,4.4835,4.4896,4.4896,0,0,0,4.4622,4.4612,4.464,4.4668,4.4685,4.4687,4.4694,4.4768,4.4779,4.4801,4.4816,4.4835,4.4836,4.4896,4.4896,4.4875,0,0,0,4.4619,4.4602,4.4638,4.4624,4.4683,4.4727,4.4689,4.4774,4.4784,4.4815,4.4835,4.4837,4.4896,4.4896,4.4875,4.4869,0,0,0,4.4601,4.4599,4.4609,4.4622,4.4659,4.4727,4.4743,4.4777,4.4792,4.4834,4.4837,4.4896,4.4896,4.4876,4.487,4.4879,0,0,0,4.4574,4.4588,4.4609,4.4631,4.4658,4.4713,4.4743,4.4784,4.4817,4.4836,4.4896,4.4896,4.4876,4.487,4.488,4.4883,4.4882,0,0,4.4578,4.4588,4.4603,4.4624,4.4668,4.4701,4.4744,4.4796,4.4822,4.487,4.4872,4.4875,4.487,4.4879,4.4884,4.4883,0,0,0,4.4596,4.4607,4.4624,4.4654,4.4696,4.4731,4.478,4.4801,4.4843,4.4842,4.4882,4.4879,4.4886,4.4889,4.4888,4.4896,4.4896,4.4896,4.4896,4.4568,4.4601,4.4629,4.4674,4.4703,4.4755,4.4783,4.4819,4.4843,4.4852,4.4866,4.4865,4.4868,4.4867,4.4875,4.4871,4.487,4.487,4.487,4.4579,4.46,4.4633,4.4672,4.4708,4.4742,4.4793,4.481,4.4847,4.4856,4.4864,4.4872,4.4865,4.4874,4.4869,4.4869,4.4869,4.487,4.487,4.4564,4.458,4.4605,4.4655,4.4689,4.4734,4.477,4.4801,4.483,4.4838,4.4858,4.4858,4.4864,4.4845,4.4845,4.4845,4.4845,4.4845,4.4845,4.4539,4.4568,4.4593,4.464,4.4666,4.4703,4.4757,4.4783,4.482,4.4841,4.4841,4.4865,4.4858,4.4856,4.4845,4.4845,4.4845,4.4845,4.4845,4.4538,4.4544,4.4583,4.4608,4.4668,4.4702,4.4742,4.4793,4.4819,4.4836,4.486,4.4849,4.4861,4.4862,4.486,4.4851,4.4851,4.4851,4.4851,4.4526,4.4536,4.4584,4.4623,4.4665,4.4706,4.4752,4.4796,4.4841,4.486,4.4866,4.4867,4.4867,4.4879,4.4879,4.4879,4.4875,4.4875,4.4875,4.4529,4.4544,4.4575,4.4621,4.467,4.4712,4.4757,4.4802,4.4855,4.4876,4.4876,4.4875,4.4877,4.4876,4.4896,4.4896,4.4895,0,0]}]]